Location: ??????
(55.6500°N, 37.8000°E)
Time: 04:54:14
(UTC+00:00)

Lacrosse 5 - Pass Details

Date: 14 April 2024
Orbit: 714 x 724 km, 57.0° (Epoch: 09 March)

Event Time Altitude Azimuth Distance (km) Brightness Sun altitude
Exits shadow 01:44:47 - 266° (W) 2,631 4.2 -6.2°
Reaches altitude 10° 01:45:52 10° 267° (W) 2,220 3.8 -6.1°
Maximum altitude 01:51:00 77° 354° (N) 749 2.1 -5.4°
Drops below altitude 10° 01:56:07 10° 81° (E) 2,220 6.0 -4.7°
Sets 01:58:31 0° 83° (E) 3,141 6.9 -4.4°
